This is the latest recevied weather packets stored in our database for station/object HB9MIR-13. If no packets are shown the sender has not sent any weather packets the latest 10 day(s).
| Time | Temp. | Humidity | Pressure | Rain* | Wind** | Luminosity | Snow |
|---|---|---|---|---|---|---|---|
| 1777650402 | 23.89° C | 30% | 1020.3 hPa | 0 mm | - | 341 W/m² | - |
| 1777649727 | 23.89° C | 33% | 1020.2 hPa | 0 mm | - | 375 W/m² | - |
| 1777649027 | 23.33° C | 30% | 1020.6 hPa | 0 mm | - | 413 W/m² | - |
| 1777648340 | 23.33° C | 31% | 1020.6 hPa | 0 mm | - | 453 W/m² | - |
| 1777647651 | 23.33° C | 30% | 1020.8 hPa | 0 mm | - | 489 W/m² | - |
| 1777646962 | 23.33° C | 30% | 1021.1 hPa | 0 mm | - | 519 W/m² | - |
| 1777646226 | 22.78° C | 33% | 1021 hPa | 0 mm | - | 543 W/m² | - |
| 1777645525 | 22.78° C | 32% | 1020.9 hPa | 0 mm | - | 581 W/m² | - |
| 1777644837 | 22.78° C | 32% | 1021.1 hPa | 0 mm | - | 619 W/m² | - |
| 1777644150 | 22.78° C | 33% | 1021.4 hPa | 0 mm | - | 645 W/m² | - |
| 1777643462 | 22.78° C | 33% | 1021.4 hPa | 0 mm | - | 664 W/m² | - |
| 1777642726 | 22.78° C | 33% | 1021.7 hPa | 0 mm | - | 690 W/m² | - |
| 1777642027 | 22.78° C | 35% | 1022 hPa | 0 mm | - | 710 W/m² | - |
| 1777641340 | 21.67° C | 36% | 1021.9 hPa | 0 mm | - | 728 W/m² | - |
| 1777640652 | 22.22° C | 35% | 1022.1 hPa | 0 mm | - | 742 W/m² | - |
| 1777639963 | 21.67° C | 35% | 1022.3 hPa | 0 mm | - | 759 W/m² | - |
| 1777639227 | 21.67° C | 41% | 1022.6 hPa | 0 mm | - | 778 W/m² | - |
| 1777638526 | 21.11° C | 37% | 1022.6 hPa | 0 mm | - | 787 W/m² | - |
| 1777637838 | 20.56° C | 35% | 1022.7 hPa | 0 mm | - | 801 W/m² | - |
| 1777637150 | 20.56° C | 37% | 1022.6 hPa | 0 mm | - | 815 W/m² | - |
| 1777636462 | 20.56° C | 34% | 1022.8 hPa | 0 mm | - | 820 W/m² | - |
| 1777635775 | 20° C | 35% | 1022.9 hPa | 0 mm | - | 819 W/m² | - |
| 1777635086 | 20° C | 33% | 1023.2 hPa | 0 mm | - | 828 W/m² | - |
| 1777634411 | 18.89° C | 36% | 1023.1 hPa | 0 mm | - | 829 W/m² | - |
| 1777633709 | 19.44° C | 34% | 1023.5 hPa | 0 mm | - | 833 W/m² | - |
* Rain latest hour (hover to see other rain measurements)
** Current wind speed in m/s (hover to see current wind gust speed)